Location: Cleveland
(41.4990°N, 81.6960°W)
Time: 10:21:31
(UTC-04:00)

N. Korean satellite - Pass Details

Date: 27 September 2021
Orbit: 450 x 495 km, 97.3° (Epoch: 19 October)

Event Time Altitude Azimuth Distance (km) Brightness Sun altitude
Rises 06:25:49 0° 17° (NNE) 2,535 10.6 -10.9°
Reaches altitude 10° 06:27:55 10° 23° (NNE) 1,660 9.7 -10.5°
Maximum altitude 06:31:23 49° 99° (E) 636 7.7 -9.9°
Drops below altitude 10° 06:34:53 10° 175° (S) 1,669 9.3 -9.2°
Sets 06:37:00 0° 181° (S) 2,551 10.2 -8.8°
